Погода в Полтаве

Поиск расширенной информации на нашем сайте:

Полезная информация:

Новости сайта



02.01.2020
Опубликован Долгосрочный прогноз погоды по городам России и ближнего зарубежья на январь 2020 года.
Карты: Прогноз на январь и февраль 2020 года, Сравнение прогнозируемой аномалии приземной температуры воздуха на январь 2020 года по разным моделям.




Погода в Полтаве - сегодня

Время (UTC), дата Ветер
(°,м/с) 
Видим.   Явления Облачность Т
(°С)
Тd
(°С)
f(%) Тe
(°С)
Pmin
(гПа)
dP
(гПа)
Po
(мм)
O2
(г/м3)
Тmin Tmax R s Состояние
почвы
06 16.01.21 220 (ЮЗ) 10 км    9/6 600 м средняя 
[Sc|Ac As]
-13.2 -15.8 81 -15  1012.7  0.9  744  316  -14.2    0.0  равномерный
сухой снег
100% 
09 16.01.21 230 (ЮЗ) 10 км    4/4 600 м 
[Sc]
-11.3 -14.8 75 -13  1013.9  1.3  745  314           
12 16.01.21 290 (З) 10 км    10/10 600 м 
[Sc]
-11.1 -15.3 71 -11  1013.8  -0.1  745  314           
15 16.01.21 290 (З) 10 км  {ливн. осадки}  10/10 600 м 
[Ac trans]
-12.1 -16.5 70 -12    0.8             
18 16.01.21 240 (ЮЗ) 10 км  {ливн. осадки}  ясно 
-15.8 -19.5 73 -16  1015.6  0.6  746  320    -10.4  0.0     
21 16.01.21 270 (З) 10 км    ясно 
-18 -20.6 80 -18  1017  1.2  747  324           
00 17.01.21 270 (З) 10 км    ясно 
-19.2 -21.5 82 -19  1016.4  -0.7  746  325           
03 17.01.21 тихо ()   10 км    ясно 
-21.2 -22.8 87 -21  1016.1  -0.5  746  327           
06 17.01.21 тихо ()   10 км    ясно 
-21.6 -23.2 87 -22  1016.2  0.1  746  328  -21.7      равномерный
сухой снег
100% 
12 17.01.21 330 (СЗ) 10 км    4/0 верхняя 
[Ci fib]
-16.2 -20.6 69 -16  1015.9  -0.2  746  321           
15 17.01.21 тихо ()   10 км    9/0 верхняя 
[Cc]
-17.3 -21.1 72 -17  1015.6  -0.4  746  322           
18 17.01.21 тихо ()   10 км    10/0 средняя 
[As trans]
-17.2 -20.6 75 -17  1016.4  0.8  746  322           
21 17.01.21 340 (С) 10 км    10/0 средняя 
[As op]
-17.8 -20.9 77 -18  1016.6  0.1  746  323           
00 18.01.21 340 (С) 10 км    9/0 средняя, верхняя 
[Ac trans|Ci]
-18.4 -21.1 79 -19  1016.5  -0.1  746  324           
03 18.01.21 300 (СЗ) 10 км    9/0 верхняя 
[Ci]
-17.6 -20.5 78 -18  1016.2  -0.3  746  323           
06 18.01.21 360 (С) 10 км    9/0 средняя, верхняя 
[Ac trans|Ci fib]
-17.8 -20.6 79 -18  1016.9  0.7  747  323  -18.5      равномерный
сухой снег
100% 
09 18.01.21 тихо ()   10 км    9/0 средняя, верхняя 
[Ac trans|Ci fib]
-15.4 -19.8 69 -15  1017  0.3  747  320           
12 18.01.21 290 (З) 10 км    9/4 600 м средняя, верхняя 
[Sc|Ac trans|Ci fib]
-14.4 -19.2 67 -14  1016.2  -0.7  746  319           
15 18.01.21 310 (СЗ) 10 км    9/9 600 м 
[Sc]
-15.1 -19 72 -15  1017.5  1.2  747  320           
18 18.01.21 300 (СЗ) 10 км  слаб. снег  9/0 средняя 
[As op]
-15.8 -18.9 77 -16  1018.1  0.5  748  321    -13       
21 18.01.21 тихо ()   10 км  слаб. снег  8/0 средняя 
[As op]
-16.4 -19.3 78 -16  1018.4  0.3  748  322           
00 19.01.21 280 (З) 10 км  слаб. снег  8/0 средняя 
[As op]
-16.7 -18.9 83 -17  1018.2  -0.2  748  322      0.2     
03 19.01.21 290 (З) 10 км  слаб. снег  6/0 средняя 
[As op]
-16.2 -18 86 -16  1018.2  748  322           
06 19.01.21 270 (З) 10 км  {снег}  9/0 верхняя 
[Cc]
-16.2 -18.1 85 -16  1019.2  748  322  -16.8    0.2     
09 19.01.21 280 (З) 10 км    8/0 верхняя 
[Ci fib]
-14.9 -17 84 -19  1019.5  0.4  749  320           
Время (UTC), дата Ветер
(°,м/с) 
Видим.   Явления Облачность Т
(°С)
Тd
(°С)
f(%) Тe
(°С)
Pmin
(гПа)
dP
(гПа)
Po
(мм)
O2
(г/м3)
Тmin Tmax R s Состояние
почвы

Для получения пояснительной информации подведите курсор к названию столбца.

ПОГОДА в Полтаве - архив

Всё, что Вы хотите узнать о погоде в Полтаве - удобно и подробно!

Выберите нужную дату (начиная с 1 января 2019* года) и нажмите кнопку "Найти".
Будут отображены архивные сводки погоды по пункту Полтава, начиная с указанной даты.


Отображать данные в формате CSV (для использования в таблицах Excel)


Внимание! Наш архив погоды предназначен исключительно для личного некоммерческого использования в познавательных целях. Если Вам необходимы официальные справки о состоянии погоды (для производственных, юридических, коммерческих и т.п. целей), обращайтесь в органы Росгидромета.

*Примечание: данная дата относится к архиву по метеостанциям СССР (Россия, СНГ, Балтия).
Архив по метеостанциям Зарубежной Европы и Азии (кроме Китая) хранится 10 дней, по другим регионам земного шара (Китай, Африка, Америка, Австралия, Океания) - 1 день.

Полтава - район местоположения метеостанции


Название, широта, долгота, высота метеостанции:
Полтава 49.6°ш. 34.6°д. 160 м над ур. моря [Украина]

Дополнительная информация

В oтличие oт бoльшинства пoгoдных сайтoв мы публикуем пoдрoбную метеoинфoрмацию в детальнoм прoфессиoнальнoм фoрмате.

Характеристики температуры и влажнoсти вoздуха измеряются на высoте 2 м в тени вдали oт зданий и деревьев.
Скoрoсть ветра измеряется на высoте 10 м (на урoвне рoста челoвека скoрoсть ветра ниже в 1.5-2 раза). Если метеoстанция нахoдится в гoрoде или в лесу, тo скoрoсть ветра занижена на 2-4 м/с пo сравнению с oткрытым местoм. Скoрoсть ветра над акватoриями крупных рек и oзёр, а также на вершинах хoлмoв на 2-5 м/с выше, чем в oбычных услoвиях.
Атмoсфернoе давление в разных тoчках местнoсти мoжет значительнo oтличаться oт давления на метеoстанции, в зависимoсти oт услoвий рельефа (при пoдъёме на 10 м давление пoнижается примернo на 1 мм рт.ст.).